Lincoln, NE

3:52 PM CDT on July 05, 2015 (GMT -0500)
Capitol Beach | | Change Station
CLOSE
Current Station
Personal Weather Station
Location: Lincoln, NE
Elevation: 1134 ft
Nearby Weather Stations

Elev 1134 ft 40.82 °N, 96.73 °W | Updated 29 seconds ago

Clear
Clear
92.7 °F
Feels Like 103 °F
N
6.0
Wind Variable Wind from SSE
Gusts 19.0 mph

Today
High -- | Low -- °F
--% Chance of Precip.
Yesterday
High -- | Low -- °F
Precip. -- in
6:01 AM 9:01 PM
Waning Gibbous, 82% visible
Pressure 29.79 in
Visibility 10.0 miles
Clouds Clear
Heat Index 103 °F
Dew Point 74 °F
Humidity 55%
Rainfall 0.00 in
Snow Depth Not available.
UV 11 out of 12
Pollen 4.30 out of 12
Air Quality Not available.
Flu Activity Not available.
METAR KLNK 051954Z 17019G26KT 10SM CLR 33/23 A2983 RMK AO2 PK WND 18026/1953 SLP086 T03280228

More Conditions Fewer Conditions

Pressure 29.79 in
Visibility 10.0 miles
Clouds Clear
Heat Index 103 °F
Dew Point 74 °F
Humidity 55%
Rainfall 0.00 in
Snow Depth Not available.
UV 11 out of 12
Pollen 4.30 out of 12
Air Quality Not available.
Flu Activity Not available.
METAR KLNK 051954Z 17019G26KT 10SM CLR 33/23 A2983 RMK AO2 PK WND 18026/1953 SLP086 T03280228

More Conditions Fewer Conditions

10-Day Weather Forecast

×

Almanac

Astronomy

Jul. 05, 2015 Rise Set
Actual Time
Civil Twilight
Nautical Twilight
Astronomical Twilight
Moon
Length of Visible Light
Length of Day
Tomorrow will be .
, % of the Moon is Illuminated

Today's Extremes

State Highs State Lows

Community

WunderPhotos

Upload Photos

1,835,379 photos uploaded!

WunderBlogs® & News

Nearby

Air Quality

  Air Quality AQ Index Pollutant
Not available.

Snow Depth

Station Depth Elevation

Earthquake Activity

City Distance Mag. Time & Date
Minimum magnitude displayed is 2.5.

Coastal Water Temperatures

Place Temperature

Stations

Nearby Weather Stations

Station Location Temp. Windchill Dew Point Humidity Wind Precip. Elev Updated Type